Hourly Data Report for June 16, 2018

TORONTO CITY
ONTARIO
Current Station Operator: ECCC - MSC

43°40'00.000" N
79°24'00.000" W
112.50 m
6158355
71508
XTO

Download Data

Hourly Data (June 2018)
Hourly Data Report for June 16, 2018
TIME
LST
Temp Definition
°C
Dew Point Definition
°C
Rel Hum Definition
%
Precip. Amount Definition
mm

Wind Dir Definition
10's deg

Wind Spd Definition
km/h
Visibility Definition
km
Stn Press Definition
kPa
Hmdx Definition


Wind Chill Definition


Weather Definition


00:00 17.6 8.5 55 0.0 LegendMM LegendMM   100.33     LegendNANA
01:00 17.6 7.8 53 0.0 LegendMM LegendMM   100.32     LegendNANA
02:00 16.9 8.0 56 0.0 LegendMM LegendMM   100.31     LegendNANA
03:00 16.2 8.2 59 0.0 LegendMM LegendMM   100.26     LegendNANA
04:00 16.3 8.5 60 0.0 LegendMM LegendMM   100.25     LegendNANA
05:00 15.8 9.4 66 0.0 LegendMM LegendMM   100.30     LegendNANA
06:00 17.0 9.4 61 0.0 LegendMM LegendMM   100.34     LegendNANA
07:00 17.7 9.5 59 0.0 LegendMM LegendMM   100.38     LegendNANA
08:00 20.7 8.6 46 0.0 LegendMM LegendMM   100.41     LegendNANA
09:00 22.5 8.1 40 0.0 LegendMM LegendMM   100.36     LegendNANA
10:00 22.6 8.7 41 0.0 LegendMM LegendMM   100.36     LegendNANA
11:00 24.0 8.6 37 0.0 LegendMM LegendMM   100.30 25   LegendNANA
12:00 25.3 9.4 37 0.0 LegendMM LegendMM   100.25 26   LegendNANA
13:00 26.1 8.5 33 0.0 LegendMM LegendMM   100.18 27   LegendNANA
14:00 27.0 7.8 30 0.0 LegendMM LegendMM   100.20 27   LegendNANA
15:00 27.3 8.8 31 0.0 LegendMM LegendMM   100.22 28   LegendNANA
16:00 27.2 8.3 30 0.0 LegendMM LegendMM   100.16 28   LegendNANA
17:00 26.2 7.3 30 0.0 LegendMM LegendMM   100.16 26   LegendNANA
18:00 25.8 8.7 34 0.0 LegendMM LegendMM   100.16 27   LegendNANA
19:00 25.3 8.1 33 0.0 LegendMM LegendMM   100.17 26   LegendNANA
20:00 24.3 7.7 34 0.0 LegendMM LegendMM   100.17 25   LegendNANA
21:00 22.6 9.2 43 0.0 LegendMM LegendMM   100.23     LegendNANA
22:00 21.6 10.7 50 0.0 LegendMM LegendMM   100.25     LegendNANA
23:00 21.0 11.0 53 0.0 LegendMM LegendMM   100.25     LegendNANA

Notes on Data Quality.

Legend

  • E = Estimated
  • M = Missing
  • NA = Not Available*
  • [empty] = Indicates an unobserved value
Date modified: